TimeMDT,TemperatureF,Dew PointF,Humidity,Sea Level PressureIn,VisibilityMPH,Wind Direction,Wind SpeedMPH,Gust SpeedMPH,PrecipitationIn,Events,Conditions,WindDirDegrees,DateUTC
12:53 AM,73.0,43.0,34,29.71,10.0,WSW,10.4,21.9,N/A,,Clear,250,2013-06-18 06:53:00
1:16 AM,73.4,42.8,33,29.77,10.0,WNW,17.3,26.5,N/A,,Clear,300,2013-06-18 07:16:00
1:53 AM,71.1,42.1,35,29.73,10.0,WNW,18.4,-,N/A,,Clear,300,2013-06-18 07:53:00
2:53 AM,69.1,42.1,38,29.75,10.0,NW,16.1,25.3,N/A,,Clear,310,2013-06-18 08:53:00
3:53 AM,68.0,43.0,40,29.76,10.0,NW,17.3,23.0,N/A,,Clear,320,2013-06-18 09:53:00
4:53 AM,66.9,44.1,44,29.77,10.0,NW,16.1,25.3,N/A,,Clear,310,2013-06-18 10:53:00
5:53 AM,64.9,44.1,47,29.79,10.0,NW,12.7,21.9,N/A,,Clear,310,2013-06-18 11:53:00
6:53 AM,64.0,44.1,48,29.81,10.0,Calm,Calm,-,N/A,,Clear,0,2013-06-18 12:53:00
7:53 AM,64.9,44.1,47,29.82,10.0,West,8.1,-,N/A,,Clear,270,2013-06-18 13:53:00
8:53 AM,69.1,44.1,40,29.82,10.0,NW,8.1,-,N/A,,Clear,320,2013-06-18 14:53:00
9:53 AM,73.9,44.1,34,29.82,10.0,NW,9.2,-,N/A,,Clear,320,2013-06-18 15:53:00
10:53 AM,77.0,44.1,31,29.80,10.0,Variable,6.9,-,N/A,,Clear,0,2013-06-18 16:53:00
11:53 AM,78.1,43.0,29,29.78,10.0,West,5.8,-,N/A,,Clear,280,2013-06-18 17:53:00
12:53 PM,80.1,45.0,29,29.75,10.0,ESE,4.6,-,N/A,,Clear,110,2013-06-18 18:53:00
1:53 PM,82.9,44.1,25,29.72,10.0,Variable,3.5,-,N/A,,Clear,0,2013-06-18 19:53:00
2:53 PM,84.0,45.0,25,29.69,10.0,South,4.6,-,N/A,,Clear,170,2013-06-18 20:53:00
3:53 PM,86.0,42.1,21,29.66,10.0,North,5.8,-,N/A,,Clear,360,2013-06-18 21:53:00
4:53 PM,84.0,41.0,22,29.64,10.0,North,4.6,-,N/A,,Clear,10,2013-06-18 22:53:00
5:53 PM,75.9,46.9,36,29.67,2.5,WNW,34.5,44.9,N/A,,Haze,290,2013-06-18 23:53:00
5:57 PM,75.2,46.4,36,29.72,3.0,WNW,33.4,46.0,N/A,,Haze,300,2013-06-18 23:57:00
6:53 PM,75.0,39.9,28,29.68,10.0,WNW,25.3,34.5,N/A,,Clear,300,2013-06-19 00:53:00
7:53 PM,73.9,39.9,29,29.67,10.0,NW,16.1,25.3,N/A,,Mostly Cloudy,320,2013-06-19 01:53:00
8:53 PM,72.0,39.9,31,29.65,10.0,NW,11.5,-,N/A,,Scattered Clouds,320,2013-06-19 02:53:00
9:53 PM,70.0,41.0,35,29.65,10.0,North,3.5,-,N/A,,Partly Cloudy,360,2013-06-19 03:53:00
10:53 PM,70.0,41.0,35,29.70,10.0,WNW,9.2,-,0.00,,Overcast,290,2013-06-19 04:53:00
11:53 PM,64.0,44.1,48,29.70,10.0,NNW,12.7,16.1,N/A,,Overcast,330,2013-06-19 05:53:00